x

8777812 - Rincon Del San Jose; Potrero Lopeno Sw, Tx (rsjt2) Weather Station

3:30pm - Sat 10th Dec 2016 All times are CST. -6 hours from GMT.

  • Wind
    9mph, 11mph gusts
  • Air Temp 53°f
  • Sea Pressure 1023.9mb
  • 8777812 - Rincon Del San Jose; Potrero Lopeno Sw, Tx
  • 8777812 - Rincon Del San Jose; Potrero Lopeno Sw, Tx

More Historic Weather Station data

Upgrade to MSW Pro to gain access to the past 30 days of data for over 8000 Wavebouys and Weather Stations around the globe.

Join Pro

Comparision Forecast

View Surf forecast
   
Sat 12/10 3:30pm 9 11 mph 1023.9mb - 53f
3:24pm 9 10 mph 1023.9mb - 53f
3:18pm 8 10 mph 1023.9mb - 53f
3:12pm 9 11 mph 1023.9mb - 53f
3:06pm 10 11 mph 1023.9mb - 54f
3:00pm 9
mph
1024.2mb - 54f
2:54pm 9 10 mph 1024.3mb - 54f
2:48pm 9 10 mph 1024.2mb - 54f
2:42pm 10 11 mph 1024.3mb - 54f
2:36pm 11 13 mph 1024.3mb - 54f
2:30pm 10 11 mph 1024.3mb - 54f
2:24pm 11
mph
1024.4mb - 54f
2:18pm 11 13 mph 1024.3mb - 54f
2:12pm 11 13 mph 1024.2mb - 54f
2:06pm 10 13 mph 1024.3mb - 54f
2:00pm 10 11 mph 1024.4mb - 54f
1:54pm 11 14 mph 1024.3mb - 54f
1:48pm 14 16 mph 1024.4mb - 54f
1:42pm 13 15 mph 1024.5mb - 54f
1:36pm 11 14 mph 1024.6mb - 54f
1:30pm 10 13 mph 1024.6mb - 54f
1:24pm 13 14 mph 1024.8mb - 54f
1:18pm 11 14 mph 1025mb - 55f
1:12pm 13 14 mph 1025.3mb - 55f
1:06pm 10 13 mph 1025.5mb - 54f
1:00pm 10 11 mph 1025.6mb - 54f
12:54pm 9 10 mph 1025.8mb - 54f
12:48pm 10 11 mph 1025.9mb - 54f
12:42pm 10 11 mph 1025.9mb - 54f
12:36pm 9 11 mph 1026mb - 54f
12:30pm 11
mph
1026mb - 54f
12:24pm 9 10 mph 1026.1mb - 53f
12:18pm 9 10 mph 1026.3mb - 53f
12:12pm 9 10 mph 1026.5mb - 53f
12:06pm 10 11 mph 1026.6mb - 53f
12:00pm 11 13 mph 1026.7mb - 54f
11:54am 11 13 mph 1026.8mb - 53f
11:48am 11 13 mph 1026.9mb - 54f
11:42am 11 13 mph 1027mb - 53f
11:36am 14
mph
1027.1mb - 53f
11:30am 11 13 mph 1027.2mb - 53f
11:24am 10 11 mph 1027.3mb - 53f
11:18am 11 14 mph 1027.5mb - 53f
11:12am 11 14 mph 1027.7mb - 53f
11:06am 11 14 mph 1027.8mb - 53f
11:00am 14 15 mph 1028mb - 53f
10:54am 14 16 mph 1028mb - 53f
10:48am 14 15 mph 1028mb - 53f
10:42am 11 13 mph 1027.9mb - 53f
10:36am 13 14 mph 1028mb - 53f
10:30am 13 14 mph 1028mb - 53f
10:24am 11 13 mph 1028.1mb - 52f
10:18am 11 14 mph 1028.3mb - 52f
10:12am 13
mph
1028.2mb - 52f
10:06am 10 11 mph 1028.2mb - 52f
10:00am 10 11 mph 1028.1mb - 52f
9:54am 10 11 mph 1028.1mb - 51f
9:48am 11 13 mph 1028.2mb - 51f
9:42am 13
mph
1028.2mb - 51f
9:36am 11 13 mph 1028.2mb - 51f
9:30am 10 13 mph 1028.3mb - 51f
9:24am 10 11 mph 1028.3mb - 51f
9:18am 10 11 mph 1028.4mb - 50f
9:12am 8 10 mph 1028.5mb - 50f
9:06am 9 10 mph 1028.3mb - 50f
9:00am 10 11 mph 1028.3mb - 50f
8:54am 10 11 mph 1028.2mb - 50f
8:48am 10 14 mph 1028.1mb - 50f
8:42am 11 14 mph 1028.1mb - 49f
8:36am 11 14 mph 1028.1mb - 49f
8:30am 13 15 mph 1028.2mb - 49f
8:24am 11 14 mph 1028.2mb - 49f
8:18am 13 14 mph 1028.2mb - 49f
8:12am 11 14 mph 1028.3mb - 49f
8:06am 13 15 mph 1028.2mb - 48f
8:00am 11 14 mph 1028.4mb - 48f
7:54am 13 15 mph 1028.4mb - 48f
7:48am 13 15 mph 1028.4mb - 48f
7:42am 14 15 mph 1028.2mb - 48f
7:36am 14 16 mph 1028.2mb - 48f
7:30am 14 16 mph 1028.1mb - 48f
7:24am 15 17 mph 1028mb - 48f
7:18am 14 16 mph 1028.1mb - 48f
7:12am 15 17 mph 1028.1mb - 48f
7:06am 14 21 mph 1028.1mb - 48f
7:00am 15 18 mph 1028.2mb - 48f
6:54am 15 17 mph 1028.3mb - 47f
6:48am 15 16 mph 1028.3mb - 47f
6:42am 15 16 mph 1028.3mb - 47f
6:36am 14 16 mph 1028.2mb - 47f
6:30am 14 15 mph 1028.2mb - 47f
6:24am 13 14 mph 1028.2mb - 47f
6:18am 13 14 mph 1028.2mb - 47f
6:12am 13 16 mph 1028.1mb - 47f
6:06am 15 16 mph 1028.1mb - 47f
6:00am 15 17 mph 1027.9mb - 47f
5:54am 15 17 mph 1027.9mb - 47f
5:48am 15 17 mph 1027.9mb - 46f
5:42am 15 16 mph 1028mb - 47f
5:36am 15 18 mph 1028.1mb - 47f
5:30am 15 17 mph 1028.1mb - 47f
5:24am 14 15 mph 1028.1mb - 47f
5:18am 13 14 mph 1028.2mb - 47f
5:12am 13 16 mph 1028.2mb - 47f
5:06am 14 16 mph 1028.2mb - 47f
5:00am 13 14 mph 1028.1mb - 47f
4:54am 13 14 mph 1028mb - 47f
4:48am 11 13 mph 1028mb - 47f
4:42am 11 13 mph 1027.8mb - 47f
4:36am 11 14 mph 1027.7mb - 47f
4:30am 13 14 mph 1027.7mb - 47f
4:24am 14 15 mph 1027.6mb - 47f
4:18am 13 14 mph 1028mb - 47f
4:12am 13 14 mph 1028.3mb - 47f
4:06am 13 14 mph 1028.5mb - 47f
4:00am 13 15 mph 1028.6mb - 47f
3:54am 13 14 mph 1028.7mb - 47f
3:48am 13 14 mph 1028.6mb - 47f
3:42am 11 14 mph 1028.6mb - 47f
3:36am 13 14 mph 1028.8mb - 47f
3:30am 11 14 mph 1028.9mb - 47f
3:24am 13 14 mph 1028.9mb - 47f
3:18am 13 15 mph 1028.8mb - 47f
3:12am 14 17 mph 1028.8mb - 47f
3:06am 14 15 mph 1028.9mb - 47f
3:00am 14 15 mph 1028.8mb - 47f
2:54am 14 15 mph 1028.9mb - 47f
2:48am 13 15 mph 1028.9mb - 47f
2:42am 14 16 mph 1029mb - 47f
2:36am 14 16 mph 1029mb - 47f
2:30am 14 16 mph 1029.1mb - 47f
2:24am 15 17 mph 1029.3mb - 47f
2:18am 14 16 mph 1029.3mb - 47f
2:12am 14 17 mph 1029.5mb - 47f
2:06am 14 16 mph 1029.5mb - 47f
2:00am 13 16 mph 1029.6mb - 47f
1:54am 11 14 mph 1029.6mb - 47f
1:48am 11 13 mph 1029.8mb - 47f
1:42am 11 13 mph 1029.9mb - 47f
1:36am 10 11 mph 1030.1mb - 47f
1:30am 10 11 mph 1030.1mb - 47f
1:24am 10 11 mph 1030.2mb - 47f
1:18am 10 13 mph 1030.2mb - 47f
1:12am 10 14 mph 1030.2mb - 47f
1:06am 10 15 mph 1030.3mb - 47f
1:00am 14 16 mph 1030.3mb - 47f
12:54am 11 14 mph 1030.5mb - 47f
12:48am 11 13 mph 1030.6mb - 47f
12:42am 11 14 mph 1030.6mb - 47f
12:36am 11 14 mph 1030.6mb - 47f
12:30am 13 16 mph 1030.7mb - 47f
12:24am 14 16 mph 1030.7mb - 47f
12:18am 14 16 mph 1030.7mb - 47f
12:12am 13 15 mph 1030.7mb - 46f
12:06am 14 16 mph 1030.8mb - 46f
12:00am 14 16 mph 1030.9mb - 46f
Fri 12/09 11:54pm 15 17 mph 1031.1mb - 46f
11:48pm 14 17 mph 1031.2mb - -
11:42pm 14 17 mph 1031.2mb - -
11:36pm 15 17 mph 1031.1mb - -
11:30pm 15 17 mph 1031.2mb - 46f
11:24pm 15 17 mph 1031.1mb - 46f
11:18pm 14 17 mph 1031.1mb - -
11:12pm 14 16 mph 1031.1mb - 46f
11:06pm 15 17 mph 1031mb - 46f
11:00pm 15 16 mph 1031.1mb - 46f
10:54pm 14 16 mph 1031.1mb - 46f
10:48pm 14 16 mph 1031.2mb - 46f
10:42pm 14 15 mph 1031.3mb - 46f
10:36pm 14 16 mph 1031.3mb - 46f
10:30pm 15 17 mph 1031.3mb - 46f
10:24pm 14 16 mph 1031.3mb - 46f
10:18pm 14 15 mph 1031.3mb - 46f
10:12pm 14 15 mph 1031.2mb - 46f
10:06pm 13 15 mph 1031.2mb - 46f
10:00pm 14 15 mph 1031.1mb - 46f
9:54pm 13 15 mph 1031.1mb - 46f
9:48pm 13 15 mph 1031.2mb - 46f
9:42pm 13 15 mph 1031.2mb - 46f
9:36pm 11 14 mph 1031.2mb - 46f
9:30pm 11 14 mph 1031.2mb - 46f
9:24pm 11 14 mph 1031.1mb - 46f
9:18pm 13 14 mph 1031.2mb - 46f
9:12pm 13 14 mph 1031.2mb - 46f
9:06pm 13 14 mph 1031.2mb - 46f
9:00pm 11 14 mph 1031.2mb - 46f
8:54pm 13 14 mph 1031.1mb - 45f
8:48pm 11 14 mph 1031.2mb - -
8:42pm 11 14 mph 1031.3mb - 45f
8:36pm 11 14 mph 1031.4mb - 45f
8:30pm 13 14 mph 1031.4mb - 45f
8:24pm 13 14 mph 1031.4mb - 45f
8:18pm 13 14 mph 1031.4mb - 45f
8:12pm 11 14 mph 1031.4mb - 45f
8:06pm 11 14 mph 1031.4mb - 45f
8:00pm 11 14 mph 1031.5mb - 45f
7:54pm 11 14 mph 1031.6mb - 45f
7:48pm 11 14 mph 1031.6mb - 45f
7:42pm 13 14 mph 1031.6mb - 45f
7:36pm 13 15 mph 1031.6mb - 45f
7:30pm 14 15 mph 1031.6mb - 45f
7:24pm 11 14 mph 1031.6mb - 45f
7:18pm 11 14 mph 1031.7mb - 45f
7:12pm 13 15 mph 1031.8mb - 45f
7:06pm 13 15 mph 1031.8mb - 45f
7:00pm 14 15 mph 1031.8mb - 45f
6:54pm 14 15 mph 1031.8mb - 45f
6:48pm 14 15 mph 1031.8mb - 45f
6:42pm 14 15 mph 1031.9mb - 45f
6:36pm 14 15 mph 1032mb - 45f
6:30pm 14 15 mph 1032mb - 45f
6:24pm 14 16 mph 1032mb - 45f
6:18pm 14 16 mph 1032mb - 45f
6:12pm 14 16 mph 1032mb - 45f
6:06pm 13 15 mph 1031.9mb - 45f
6:00pm 13 15 mph 1031.9mb - 45f
5:54pm 14 15 mph 1032mb - 45f
5:48pm 13 15 mph 1032.1mb - 45f
5:42pm 14 15 mph 1032mb - 45f
5:36pm 14 17 mph 1031.8mb - 45f
5:30pm 14 16 mph 1031.8mb - 45f
5:24pm 15 17 mph 1031.8mb - 45f
5:18pm 16 17 mph 1031.9mb - 44f
5:12pm 14 16 mph 1032mb - 45f
5:06pm 14 16 mph 1032.1mb - 44f
5:00pm 15 17 mph 1032.2mb - 44f
4:54pm 16 18 mph 1032.3mb - 44f
4:48pm 15 17 mph - - -
4:42pm 16 17 mph 1032.3mb - 44f
4:36pm 15 18 mph 1032.3mb - 45f
4:30pm 16 18 mph 1032.2mb - 44f
4:24pm 17 20 mph 1032mb - 44f
4:18pm 15 18 mph 1032.1mb - 45f
4:12pm 17 21 mph 1032.1mb - 44f
4:06pm 17 21 mph 1032.1mb - 45f
4:00pm 18 21 mph 1032mb - 44f
3:54pm 17 20 mph 1031.9mb - 44f
3:48pm 16 21 mph 1032mb - 44f
3:42pm 18 21 mph 1032.1mb - 44f
3:36pm 16 20 mph 1032.2mb - 44f
3:30pm 18 21 mph 1032.1mb - 44f
3:24pm 18 21 mph 1032mb - 44f
3:18pm 18 20 mph 1032mb - 44f
3:12pm 18 20 mph 1032.1mb - 44f
3:06pm 15 17 mph 1032.2mb - 44f
3:00pm 17 20 mph 1032.2mb - 44f
2:54pm 16 18 mph 1032.2mb - 44f
2:48pm 15 18 mph 1032.2mb - 44f
2:42pm 16 20 mph 1032.2mb - 44f
2:36pm 17 21 mph 1032.1mb - 44f
2:30pm 17 18 mph 1032.1mb - 44f
2:24pm 15 20 mph 1032.2mb - 44f
2:18pm 16 18 mph 1032.3mb - 44f
2:12pm 17 18 mph 1032.2mb - 44f
2:06pm 15 20 mph 1032.2mb - 44f
2:00pm 17 20 mph 1032.3mb - 43f
1:54pm 17 21 mph 1032.3mb - 43f
1:48pm 16 21 mph 1032.4mb - 43f
1:42pm 16 18 mph 1032.4mb - 43f
1:36pm 16 18 mph 1032.5mb - 43f
1:30pm 15 20 mph 1032.6mb - 43f
1:24pm 17 18 mph 1032.6mb - 43f
1:18pm 16 18 mph 1032.7mb - 43f
1:12pm 16 18 mph 1032.8mb - 43f
1:06pm 16 21 mph 1032.9mb - 43f
1:00pm 17 21 mph 1033mb - 43f
12:54pm 16 20 mph 1033.1mb - 43f
12:48pm 17 20 mph 1033.2mb - 42f
12:42pm 18 21 mph 1033.3mb - 42f
12:36pm 16 20 mph 1033.5mb - 42f
12:30pm 16 20 mph 1033.6mb - 42f
12:24pm 17 21 mph 1033.6mb - 42f
12:18pm 17 22 mph 1033.8mb - 42f
12:12pm 17 22 mph 1033.9mb - 42f
12:06pm 21 23 mph 1034mb - 42f
12:00pm 20 23 mph 1034mb - 42f
11:54am 18 21 mph 1034.2mb - 42f
11:48am 17 21 mph 1034.4mb - 42f
11:42am 18 22 mph 1034.5mb - 42f
11:36am 18 21 mph 1034.7mb - 42f
11:30am 18 21 mph 1034.8mb - 42f
11:24am 20 22 mph 1034.9mb - 42f
11:18am 18 22 mph 1035.1mb - 42f
11:12am 18 20 mph 1035.1mb - 42f
11:06am 20 22 mph 1035.2mb - 42f
11:00am 20 23 mph 1035.3mb - 42f
10:54am 18 22 mph 1035.4mb - 42f
10:48am 18 22 mph 1035.4mb - 42f
10:42am 20 23 mph 1035.4mb - 41f
10:36am 21 23 mph 1035.4mb - 41f
10:30am 20 25 mph 1035.5mb - 41f
10:24am 21 24 mph 1035.4mb - 41f
10:18am 22 24 mph 1035.5mb - 41f
10:12am 21 24 mph 1035.6mb - 41f
10:06am 20 22 mph 1035.7mb - 41f
10:00am 20 23 mph 1035.7mb - 41f
9:54am 21 23 mph 1035.6mb - 41f
9:48am 21 23 mph 1035.6mb - 41f
9:42am 20 24 mph 1035.6mb - 41f
9:36am 18 23 mph 1035.6mb - 41f
9:30am 20 23 mph 1035.6mb - 41f
9:24am 20 24 mph 1035.5mb - 41f
9:18am 21 24 mph 1035.3mb - 41f
9:12am 21 24 mph 1035.3mb - 41f
9:06am 22 24 mph 1035.2mb - 41f
9:00am 21 25 mph 1035.1mb - 41f
8:54am 22 25 mph 1035.1mb - 41f
8:48am 22 25 mph 1035.1mb - 41f
8:42am 21 24 mph 1035mb - 41f
8:36am 22 24 mph 1035mb - 41f
8:30am 21 24 mph 1034.9mb - 41f
8:24am 21 24 mph 1034.9mb - 41f
8:18am 22 24 mph 1034.8mb - 41f
8:12am 22 25 mph 1034.8mb - 41f
8:06am 22 25 mph 1034.7mb - 41f
8:00am 22 24 mph 1034.7mb - 41f
7:54am 22 25 mph 1034.7mb - 41f
7:48am 21 26 mph 1034.6mb - 41f
7:42am 23 26 mph 1034.4mb - 41f
7:36am 24 29 mph 1034.4mb - 41f
7:30am 25 29 mph 1034.3mb - 41f
7:24am 24 29 mph 1034.2mb - 41f
7:18am 23 28 mph 1034.2mb - 41f
7:12am 22 28 mph 1034.2mb - 41f
7:06am 23 29 mph 1034.1mb - 41f
7:00am 23 29 mph 1034mb - 41f
6:54am 25 28 mph 1033.9mb - 41f
6:48am 25 29 mph 1033.9mb - 41f
6:42am 23 28 mph 1033.9mb - 41f
6:36am 24 26 mph 1033.9mb 49f 41f
6:30am 24 29 mph 1033.8mb 49f 41f
6:24am 23 26 mph 1033.8mb 49f 41f
6:18am 21 25 mph 1033.9mb 49f 41f
6:12am 23 25 mph 1033.8mb 49f 41f
6:06am 21 25 mph 1033.9mb 49f 41f
6:00am 21 23 mph 1033.7mb 49f 41f
5:54am 22 25 mph 1033.7mb 49f 42f
5:48am 23 29 mph 1033.5mb 50f 42f
5:42am 25 30 mph 1033.3mb 50f 42f
5:36am 23 28 mph 1033.3mb 50f 42f
5:30am 23 28 mph 1033.2mb 50f 42f
5:24am 21 28 mph 1033.2mb 50f 42f
5:18am 24 28 mph 1033.3mb 50f 42f
5:12am 25 31 mph 1033.3mb 50f 42f
5:06am 24 28 mph 1033.3mb 50f 42f
5:00am 24 28 mph 1033.3mb 50f 42f
4:54am 23 26 mph 1033.2mb 50f 42f
4:48am 24 28 mph 1033.1mb 50f 42f
4:42am 23 26 mph 1033.1mb 50f 42f
4:36am 23 26 mph 1033.2mb 50f 42f
4:30am 22 25 mph 1033.1mb 50f 42f
4:24am 23 26 mph 1033.2mb 51f 42f
4:18am 22 26 mph 1033.2mb 51f -
4:12am 22 29 mph 1033.2mb 51f 42f
4:06am 23 28 mph 1033.1mb 51f 42f
4:00am 25 30 mph 1033mb 51f 42f
3:54am 24 30 mph 1032.9mb 51f 42f
3:48am 25 31 mph 1032.8mb 51f 41f
3:42am 29 33 mph 1032.7mb 51f 41f
3:36am 25 30 mph 1032.7mb 51f 41f
3:30am 24 29 mph 1032.7mb 51f 41f
3:24am 24 30 mph 1032.8mb 51f 41f
3:18am 28 30 mph 1032.8mb 51f 41f
3:12am 24 28 mph 1032.9mb 51f 41f
3:06am 26 30 mph 1033mb 51f 41f
3:00am 22 28 mph 1033mb 51f 41f
2:54am 25 28 mph 1032.9mb 51f 41f
2:48am 24 29 mph 1032.9mb 51f 41f
2:42am 24 29 mph 1032.9mb 52f 41f
2:36am 26 31 mph 1032.8mb 52f 42f
2:30am 25 29 mph 1032.8mb 52f 42f
2:24am 28 31 mph 1032.9mb 52f 42f
2:18am 28 31 mph 1032.8mb 52f 42f
2:12am 26 30 mph 1032.7mb 52f 42f
2:06am 25 29 mph 1032.9mb 52f 42f
2:00am 28 31 mph 1032.9mb 52f 42f
1:54am 25 30 mph 1033mb 52f 42f
1:48am 25 29 mph 1033.1mb 52f 42f
1:42am 24 31 mph 1033.1mb 52f 42f
1:36am 25 30 mph 1033mb 53f 42f
1:30am 26 32 mph 1033mb 53f 42f
1:24am 29 32 mph 1032.9mb 53f 42f
1:18am 28 31 mph 1032.8mb 53f 42f
1:12am 25 31 mph 1032.8mb 53f 42f
1:06am 26 32 mph 1032.9mb 53f 42f
1:00am 30 32 mph 1032.9mb 53f 42f
12:54am 25 30 mph 1033mb 53f 42f
12:48am 26 30 mph 1033mb 53f 43f
12:42am 25 30 mph 1033.2mb 53f 43f
12:36am 25 31 mph 1033.2mb 53f 43f
12:30am 22 26 mph 1033.3mb 53f 43f
12:24am 22 25 mph 1033.3mb 53f 43f
12:18am 22 26 mph 1033.4mb 54f 43f
12:12am 23 28 mph 1033.4mb 54f 43f
12:06am 23 26 mph 1033.5mb 54f 43f
12:00am 23 28 mph 1033.6mb 54f 44f
Thu 12/08 11:54pm 26 32 mph 1033.5mb 54f 44f
11:48pm 28 31 mph 1033.4mb 54f 44f
11:42pm 26 30 mph 1033.4mb - -
11:36pm 24 29 mph 1033.5mb - -
11:30pm 24 30 mph 1033.5mb 54f 44f
11:24pm 26 31 mph 1033.5mb 55f 44f
11:18pm 25 28 mph 1033.5mb 55f -
11:12pm 28 31 mph 1033.4mb 55f 44f
11:06pm 26 30 mph 1033.3mb 55f 44f
11:00pm 24 28 mph 1033.4mb 55f 44f
10:54pm 26 31 mph 1033.3mb 55f 44f
10:48pm 26 30 mph 1033.2mb 55f 43f
10:42pm 26 30 mph 1033.2mb 55f 44f
10:36pm 25 30 mph 1033.2mb 55f 44f
10:30pm 26 32 mph 1032.9mb 55f 44f
10:24pm 26 32 mph 1032.9mb 55f 44f
10:18pm 26 30 mph 1032.9mb 55f 44f
10:12pm 26 37 mph 1032.9mb 56f 43f
10:06pm 29 31 mph 1032.8mb 56f 44f
10:00pm 28 32 mph 1032.8mb 56f 43f
9:54pm 25 31 mph 1032.8mb 56f 44f
9:48pm 25 32 mph 1032.8mb 56f 44f
9:42pm 25 32 mph 1032.7mb 56f 44f
9:36pm 28 34 mph 1032.7mb 56f 43f
9:30pm 26 33 mph 1032.5mb 56f 43f
9:24pm 29 32 mph 1032.5mb 56f 43f
9:18pm 31 34 mph 1032.5mb 56f -
9:12pm 30 33 mph 1032.4mb 57f 43f
9:06pm 29 33 mph 1032.4mb 57f 43f
9:00pm 29 32 mph 1032.5mb 57f 43f
8:54pm 29 33 mph 1032.5mb 57f 44f
8:48pm 29 33 mph 1032.4mb 57f 44f
8:42pm 26 31 mph 1032.4mb 57f 44f
8:36pm 25 31 mph 1032.3mb 57f 44f
8:30pm 28 33 mph 1032.1mb 57f 44f
8:24pm 28 31 mph 1032mb 57f 44f
8:18pm 28 32 mph 1032mb 57f 44f
8:12pm 28 33 mph 1031.8mb 57f 44f
8:06pm 25 32 mph 1031.9mb 57f 44f
8:00pm 28 34 mph 1031.6mb 57f 44f
7:54pm 28 32 mph 1031.6mb 57f 44f
7:48pm 28 34 mph 1031.4mb 58f 45f
7:42pm 30 33 mph 1031.2mb 58f 45f
7:36pm 29 33 mph 1031.1mb 58f 45f
7:30pm 26 32 mph 1031mb 58f 45f
7:24pm 24 31 mph 1031mb 58f 45f
7:18pm 28 34 mph 1030.8mb 58f 45f
7:12pm 29 34 mph 1030.8mb 58f 45f
7:06pm 30 34 mph 1030.6mb 58f 45f
7:00pm 30 34 mph 1030.5mb 58f 45f
6:54pm 30 34 mph 1030.5mb 58f 45f
6:48pm 30 33 mph 1030.4mb 58f 45f
6:42pm 29 33 mph 1030.5mb 58f 45f
6:36pm 29 33 mph 1030.3mb 58f 45f
6:30pm 29 34 mph 1030.2mb 58f 45f
6:24pm 32 36 mph 1030mb 58f 45f
6:18pm 31 37 mph 1029.7mb 58f -
6:12pm 26 36 mph 1029.7mb 58f 45f
6:06pm 31 34 mph 1029.5mb 59f 45f
6:00pm 28 33 mph 1029.4mb 59f 46f
5:54pm 26 32 mph 1029.3mb 59f 46f
5:48pm 28 34 mph 1029.2mb 59f 46f
5:42pm 28 34 mph 1029.1mb 59f 46f
5:36pm 26 33 mph 1029mb 59f 46f
5:30pm 29 34 mph 1028.8mb 59f 46f
5:24pm 32 38 mph 1028.8mb 59f 46f
5:18pm 29 36 mph 1028.7mb 59f 46f
5:12pm 31 37 mph 1028.4mb 59f 46f
5:06pm 31 33 mph 1028.3mb 60f 46f
5:00pm 31 36 mph 1028.2mb 60f 46f
4:54pm 31 39 mph 1028.2mb 60f 46f
4:48pm 32 38 mph 1028.1mb 60f 46f
4:42pm 31 39 mph 1027.9mb 60f 47f
4:36pm 30 36 mph 1027.9mb 60f 46f
4:30pm 30 36 mph 1027.8mb 60f 46f
4:24pm 32 38 mph 1027.7mb 60f 46f
4:18pm 32 40 mph 1027.6mb 60f 46f
4:12pm 32 39 mph 1027.5mb 60f 46f
4:06pm 33 38 mph 1027.4mb 60f 46f
4:00pm 33 36 mph 1027.3mb 60f 46f
3:54pm 32 37 mph 1027.3mb 60f 47f
3:48pm 29 37 mph 1027.3mb 60f 47f
3:42pm 32 39 mph 1027.2mb 61f 46f
3:36pm 33 39 mph 1027.1mb 61f 47f
3:30pm 31 37 mph 1026.9mb 61f 46f
3:24pm 32 37 mph 1027mb 61f 46f
3:18pm 30 39 mph 1026.9mb 61f 46f
3:12pm 32 37 mph 1026.7mb 61f 46f
3:06pm 29 36 mph 1026.7mb 61f 47f
3:00pm 30 36 mph 1026.5mb 61f 47f
2:54pm 32 37 mph 1026.4mb 61f 46f
2:48pm 29 34 mph 1026.5mb 61f 46f
2:42pm 29 31 mph 1026.4mb 61f 47f
2:36pm 29 34 mph 1026.4mb 61f 47f
2:30pm 31 36 mph 1026.3mb 61f 46f
2:06pm 29 33 mph 1026.4mb 62f 47f
2:00pm 29 31 mph 1026.4mb 62f 47f
1:54pm 30 34 mph 1026.2mb 62f 47f
1:48pm 28 32 mph 1026.2mb 62f 48f
1:42pm 28 32 mph 1026.3mb 62f 48f
1:36pm 28 31 mph 1026.1mb 62f 49f
1:30pm 29 31 mph 1026mb 62f 48f
1:24pm 25 29 mph 1026mb 62f 49f
1:18pm 26 33 mph 1026mb 62f 50f
1:12pm 29 34 mph 1025.9mb 62f 50f
1:06pm 29 32 mph 1025.7mb 62f 50f
1:00pm 26 31 mph 1025.7mb 62f 51f
12:54pm 29 33 mph 1025.5mb 62f 51f
12:48pm 28 34 mph 1025.4mb 62f 51f
12:42pm 28 33 mph 1025.2mb 63f 51f
12:36pm 29 34 mph 1025.1mb 63f 52f
12:30pm 31 37 mph 1024.9mb 63f 52f
12:24pm 34 40 mph 1024.7mb 63f 52f
12:18pm 32 43 mph 1024.8mb 63f 53f
12:12pm 34 40 mph 1024.7mb 63f 53f
12:06pm 31 36 mph 1024.7mb 63f 53f
12:00pm 31 38 mph 1024.5mb 63f 53f
11:54am 34 40 mph 1024.5mb 63f 53f
11:48am 33 39 mph 1024.7mb 63f 53f
11:42am 33 41 mph 1024.7mb 63f 53f
11:36am 31 38 mph 1024.6mb 63f 53f
11:30am 33 39 mph 1024.6mb 64f 54f
11:24am 31 39 mph 1024.5mb 64f 54f
11:18am 31 39 mph 1024.6mb 64f 54f
11:12am 33 38 mph 1024.5mb 64f 54f
11:06am 32 37 mph 1024.5mb 64f 54f
11:00am 33 37 mph 1024.6mb 64f 56f
10:54am 32 39 mph 1024.6mb 64f 56f
10:48am 31 37 mph 1024.5mb 64f 56f
10:42am 29 37 mph 1024.4mb 64f 56f
10:36am 28 37 mph 1024.3mb 64f 56f
10:30am 31 37 mph 1024.2mb 65f 56f
10:24am 31 37 mph 1024.1mb 65f 58f
10:18am 28 34 mph 1024mb 65f 57f
10:12am 29 34 mph 1024.1mb 65f 58f
10:06am 29 34 mph 1024.2mb 65f 58f
10:00am 33 40 mph 1024mb 65f 59f
9:54am 30 36 mph 1023.9mb 65f 59f
9:48am 28 33 mph 1023.9mb 65f 59f
9:42am 30 34 mph 1023.9mb 65f 59f
9:36am 31 36 mph 1023.9mb 65f 59f
9:30am 28 33 mph 1023.9mb 65f 60f
9:24am 30 36 mph 1023.6mb 65f 60f
9:18am 30 36 mph 1023.7mb 65f 60f
9:12am 28 33 mph 1023.6mb 65f 60f
9:06am 25 34 mph 1023.6mb 65f 60f
9:00am 26 36 mph 1023.3mb 65f 60f
8:54am 28 34 mph 1023.2mb 65f 60f
8:48am 26 36 mph 1022.9mb - -
8:42am 29 33 mph 1022.6mb 65f 60f
8:36am 29 33 mph 1022.6mb 65f 60f
8:30am 28 38 mph 1022.4mb 65f 60f
8:24am 32 39 mph 1022.1mb 65f 60f
8:18am 29 37 mph 1022mb 65f -
8:12am 28 34 mph 1022mb 66f 60f
8:06am 30 37 mph 1021.8mb 66f 60f
8:00am 30 37 mph 1021.6mb 66f 60f
7:54am 31 41 mph 1021.6mb 66f 60f
7:48am 32 39 mph 1021.4mb 66f 61f
7:42am 33 39 mph 1021.2mb 66f 60f
7:36am 31 39 mph 1021mb 66f 60f
7:30am 33 38 mph 1020.8mb 66f 61f
7:24am 32 41 mph 1020.7mb 66f 61f
7:18am 33 40 mph 1020.4mb 66f 60f
7:12am 33 39 mph 1020.4mb 66f 61f
7:06am 30 39 mph 1020.4mb 66f 61f
7:00am 29 38 mph 1020.2mb 66f 61f
6:54am 28 37 mph 1020.2mb 66f 61f
6:48am 29 36 mph 1020.1mb 66f 61f
6:42am 29 36 mph 1020.1mb 66f 61f
6:36am 29 36 mph 1019.8mb 66f 61f
6:30am 30 37 mph 1019.6mb 66f 61f
6:24am 31 37 mph 1019.4mb 66f 61f
6:18am 32 37 mph 1019.5mb 66f 61f
6:12am 32 37 mph 1019.3mb 66f 61f
6:06am 32 37 mph 1019.3mb 66f 61f
6:00am 32 36 mph 1019.1mb 66f 61f
5:54am 29 37 mph 1019.1mb 66f 61f
5:48am 31 37 mph 1019mb - -
5:42am 25 37 mph 1019mb 66f 61f
5:36am 30 38 mph 1018.8mb 66f 61f
5:30am 30 36 mph 1018.5mb 66f 61f
5:24am 29 34 mph 1018.5mb 66f 61f
5:18am 26 32 mph 1018.5mb 66f 61f
5:12am 29 36 mph 1018.4mb 66f 61f
5:06am 29 34 mph 1018.3mb 66f 61f
5:00am 28 37 mph 1018.1mb 66f 61f
4:54am 31 36 mph 1018mb 66f 61f
4:48am 31 36 mph 1018.1mb 66f -
4:42am 30 34 mph 1018.3mb 66f 61f
4:36am 28 32 mph 1018.3mb 66f 61f
4:30am 29 33 mph 1018.3mb 66f 61f
4:24am 28 33 mph 1018.3mb 66f 61f
4:18am 26 31 mph 1018.4mb 66f 61f
4:12am 23 30 mph 1018.4mb 66f 60f
4:06am 25 33 mph 1018.3mb 66f 61f
4:00am 26 31 mph 1018.2mb 66f 61f
3:54am 24 30 mph 1018.2mb 66f 60f
3:48am 25 31 mph 1018.2mb 66f 61f
3:42am 26 32 mph 1018mb 66f 61f
3:36am 26 30 mph 1018mb 66f 61f
3:30am 25 30 mph 1017.9mb 66f 61f
3:24am 26 30 mph 1017.8mb 66f 61f
3:18am 25 30 mph 1017.8mb 66f 61f
3:12am 22 31 mph 1017.7mb 66f 61f
3:06am 23 29 mph 1017.6mb 66f 61f
3:00am 24 28 mph 1017.6mb 66f 61f
2:54am 23 28 mph 1017.7mb 66f 61f
2:48am 23 29 mph 1017.6mb 66f 61f
2:42am 21 26 mph 1017.6mb 66f 62f
2:36am 21 24 mph 1017.6mb 66f 62f
2:30am 20 25 mph 1017.6mb 66f 62f
2:24am 20 22 mph 1017.6mb 66f 62f
2:18am 21 24 mph 1017.4mb 66f 62f
2:12am 17 23 mph 1017.4mb 66f 62f
2:06am 20 22 mph 1017.4mb 66f 62f
2:00am 20 23 mph 1017.3mb 66f 62f
1:54am 16 18 mph 1017.3mb 66f 62f
1:48am 17 23 mph 1017.4mb 66f -
1:42am 17 21 mph 1017.3mb 66f 62f
1:36am 17 21 mph 1017.3mb 66f 62f
1:30am 17 23 mph 1017.2mb 66f 63f
1:24am 21 23 mph 1017.1mb 65f 63f
1:18am 21 25 mph 1017mb 65f 63f
1:12am 18 25 mph 1017.1mb 65f 63f
1:06am 20 23 mph 1017mb 65f 63f
1:00am 18 22 mph 1017.1mb 65f 63f
12:54am 18 23 mph 1017mb 65f 63f
12:48am 22 23 mph 1016.9mb 65f -
12:42am 18 24 mph 1017mb 65f -
12:36am 20 24 mph 1017mb 65f -
12:30am 20 23 mph 1016.9mb 65f 63f
12:24am 20 22 mph 1017mb 65f 63f
12:18am 16 22 mph 1017mb 65f 63f
12:12am 18 22 mph 1016.9mb 65f 63f
12:06am 17 21 mph 1017mb 65f 63f
12:00am 20 23 mph 1016.9mb 65f 63f
Wed 12/07 11:54pm 17 20 mph 1017mb 65f 63f
11:48pm 16 20 mph 1017mb - -
11:42pm 16 21 mph 1017.1mb 65f -
11:36pm 18 21 mph 1017.1mb 65f -
11:30pm 16 21 mph 1017mb 65f 64f
11:24pm 17 21 mph 1017mb 65f 64f
11:18pm 20 21 mph 1017mb 65f 64f
11:12pm 18 21 mph 1016.9mb 65f 64f
11:06pm 14 18 mph 1017mb 65f 65f
11:00pm 16 18 mph 1017mb 65f 65f
10:54pm 17 20 mph 1016.9mb 65f 65f
10:48pm 17 21 mph 1016.8mb 65f 65f
10:42pm 15 20 mph 1016.9mb 65f 65f
10:36pm 14 18 mph 1016.9mb 65f 65f
10:30pm 15 18 mph 1016.9mb 65f 66f
10:24pm 15 17 mph 1016.9mb 65f 66f
10:18pm 16 17 mph 1016.9mb 65f 66f
10:12pm 15 20 mph 1016.8mb 65f 66f
10:06pm 18 22 mph 1016.6mb 65f 66f
10:00pm 17 20 mph 1016.6mb 65f 66f
9:54pm 17 22 mph 1016.6mb 65f 66f
9:48pm 14 18 mph 1016.6mb 65f 66f
9:42pm 16 21 mph 1016.6mb 65f 66f
9:36pm 17 21 mph 1016.5mb 65f 66f
9:30pm 16 20 mph 1016.4mb 65f 65f
9:24pm 15 20 mph 1016.4mb 65f 65f
9:18pm 16 21 mph 1016.4mb 65f 65f
9:12pm 16 21 mph 1016.3mb 65f 65f
9:06pm 15 20 mph 1016.3mb 65f 65f
9:00pm 15 20 mph 1016.3mb 65f 65f
8:54pm 16 20 mph 1016.2mb 65f 64f
8:48pm 16 18 mph 1016.1mb 65f 65f
8:42pm 16 20 mph 1016.1mb 65f 65f
8:36pm 17 21 mph 1016mb 65f 65f
8:30pm 14 17 mph 1016mb 65f 65f
8:24pm 14 16 mph 1015.9mb 65f 66f
8:18pm 15 18 mph 1015.9mb 64f 66f
8:12pm 15 18 mph 1015.7mb 64f 65f
8:06pm 15 20 mph 1015.6mb 64f 65f
8:00pm 15 22 mph 1015.6mb 64f 65f
7:54pm 14 22 mph 1015.5mb 64f 66f
7:48pm 16 20 mph - - -
7:42pm 15 20 mph 1015.4mb 64f 66f
7:36pm 16 20 mph 1015.2mb 64f 66f
7:30pm 17 21 mph 1015.3mb 64f 66f
7:24pm 17 20 mph 1015.1mb 64f 65f
7:18pm 17 21 mph 1015.1mb 64f 65f
7:12pm 18 22 mph 1015mb 64f 65f
7:06pm 21 22 mph 1014.9mb 64f 65f
7:00pm 18 23 mph 1014.8mb 64f 65f
6:54pm 18 21 mph 1014.8mb 64f 65f
6:48pm 15 20 mph 1014.7mb 64f 66f
6:42pm 16 20 mph 1014.6mb 64f 66f
6:36pm 15 17 mph 1014.6mb 64f 66f
6:30pm 14 17 mph 1014.6mb 64f 66f
6:24pm 15 18 mph 1014.4mb 64f 66f
6:18pm 17 20 mph 1014.4mb 64f 66f
6:12pm 15 18 mph 1014.3mb 64f 66f
6:06pm 16 20 mph 1014.1mb 64f 66f
6:00pm 16 20 mph 1014mb 64f 67f
5:54pm 15 18 mph 1014.1mb 64f 67f
5:48pm 17 20 mph 1014mb 64f 67f
5:42pm 17 20 mph 1014mb 64f 67f
5:36pm 15 18 mph 1014mb 64f 67f
5:30pm 17 21 mph 1013.9mb 64f 67f
5:24pm 16 20 mph 1013.8mb 64f 67f
5:18pm 16 20 mph 1013.9mb 64f 68f
5:12pm 16 18 mph 1013.8mb 64f 69f
5:06pm 14 16 mph 1013.7mb 64f 70f
5:00pm 15 16 mph 1013.6mb 64f 71f
4:54pm 14 16 mph 1013.5mb 64f 71f
4:48pm 13 15 mph 1013.5mb 65f 71f
4:42pm 13 14 mph 1013.5mb 65f 72f
4:36pm 10 13 mph 1013.5mb 64f 71f
4:30pm 5 6 mph 1013.4mb 64f 73f
4:24pm 2 6 mph 1013.4mb 64f 74f
4:18pm 2 5 mph 1013.3mb 64f -
4:12pm 1 2 mph 1013.3mb 64f 75f
4:06pm  -  1 mph 1013.3mb 64f 75f
4:00pm  -  1 mph 1013.3mb 64f 75f
3:54pm  -  1 mph 1013.2mb 64f 74f
3:48pm 1 2 mph 1013.2mb 64f 74f
3:42pm  -  mph 1013.2mb 64f 74f
3:36pm  -  mph 1013.2mb 64f 73f
3:30pm  -  1 mph 1013.1mb 64f 74f
3:24pm  -  1 mph 1013.1mb 64f 73f
3:18pm  -  3 mph 1013.1mb 64f 74f
3:12pm 2 5 mph 1013mb 64f 74f
3:06pm 3 5 mph 1013mb 64f 74f
3:00pm 2 6 mph 1012.9mb 64f 74f
2:54pm 5 8 mph 1012.9mb 64f 74f
2:48pm 5 7 mph 1012.9mb 64f -
2:42pm 3 9 mph 1012.9mb 65f 74f
2:36pm 6 9 mph 1012.9mb 65f 73f
2:30pm 7 10 mph 1012.9mb 64f 73f
2:24pm 8 13 mph 1012.9mb 64f 73f
2:18pm 9 13 mph 1013mb 64f -
2:12pm 9 11 mph 1013mb 64f 72f
2:06pm 10 13 mph 1013.1mb 64f 72f
2:00pm 9 11 mph 1013.1mb 64f 72f
1:54pm 10 14 mph 1013.2mb 64f 72f
1:48pm 11 13 mph 1013.3mb 64f -
1:42pm 9 13 mph 1013.3mb 64f 72f
1:36pm 11 13 mph 1013.4mb 64f 72f
1:30pm 11 14 mph 1013.5mb 64f 71f
1:24pm 11 13 mph 1013.6mb 64f 71f
1:18pm 11 14 mph 1013.6mb 64f 71f
1:12pm 10 13 mph 1013.7mb 64f 71f
1:06pm 11 15 mph 1013.8mb 64f 71f
1:00pm 14 17 mph 1013.9mb 64f 70f
12:54pm 15 17 mph 1014.1mb 64f 70f
12:48pm 11 15 mph 1014.3mb 64f 70f
12:42pm 15 20 mph 1014.4mb 64f 70f
12:36pm 17 21 mph 1014.4mb 64f 69f
12:30pm 14 15 mph 1014.7mb 64f 69f
12:24pm 13 15 mph 1014.8mb 64f 69f
12:18pm 14 15 mph 1014.9mb 64f 69f
12:12pm 11 14 mph 1015mb 64f 69f
12:06pm 10 14 mph 1015.2mb 64f 68f
12:00pm 13 14 mph 1015.3mb 64f 68f
11:54am 13 15 mph 1015.4mb 64f 68f
11:48am 15 16 mph 1015.4mb 64f 67f
11:42am 15 17 mph 1015.5mb 64f 68f
11:36am 15 16 mph 1015.6mb 64f 69f
11:30am 15 16 mph 1015.6mb 64f 69f
11:24am 14 15 mph 1015.7mb 64f 70f
11:18am 10 13 mph 1015.9mb 64f 69f
11:12am 9 10 mph 1016mb 64f 69f
11:06am 9 11 mph 1016mb 64f 69f
11:00am 10
mph
1016.1mb 64f 68f
10:54am 9 10 mph 1016mb 64f 69f
10:48am 10 13 mph 1016mb 63f 69f
10:42am 10 11 mph 1016.1mb 63f 68f
10:36am 9 11 mph 1016.1mb 63f 68f
10:30am 9 10 mph 1016mb 63f 68f
10:24am 8 9 mph 1016mb 63f 69f
10:18am 8 9 mph 1015.9mb 63f 68f
10:12am 7
mph
1015.9mb 63f 69f
10:06am 7 9 mph 1015.9mb 63f 68f
10:00am 10
mph
1015.9mb 63f 68f
9:54am 7 8 mph 1015.9mb 63f 67f
9:48am 6 7 mph 1015.9mb 63f 68f
9:42am 6
mph
1015.9mb 63f 68f
9:36am 6 8 mph 1015.9mb 63f 68f
9:30am 8 9 mph 1015.9mb 63f 67f
9:24am 9 11 mph 1015.9mb 63f 67f
9:18am 10 11 mph 1015.9mb 63f -
9:12am 9 10 mph 1015.9mb 63f 67f
9:06am 9 10 mph 1015.9mb 63f 67f
9:00am 9 10 mph 1015.9mb 63f 67f
8:54am 7 9 mph 1015.8mb 63f 67f
8:48am 8 9 mph 1015.7mb 63f 68f
8:42am 9
mph
1015.7mb 63f 67f
8:36am 8 10 mph 1015.6mb 63f 67f
8:30am 8 9 mph 1015.5mb 63f 67f
8:24am 7 9 mph 1015.5mb 63f 67f
8:18am 9 11 mph 1015.4mb 63f 67f
8:12am 9 10 mph 1015.3mb 63f 66f
8:06am 9 10 mph 1015.3mb 63f 66f
8:00am 7 9 mph 1015.2mb 63f 66f
7:54am 8 9 mph 1015.2mb 63f 65f
7:48am 7 9 mph 1015.2mb 63f 65f
7:42am 8 9 mph 1015.1mb 63f 65f
7:36am 9 10 mph 1015.1mb 63f 65f
7:30am 8 9 mph 1015.1mb 63f 65f
7:24am 8 9 mph 1015.1mb 63f 65f
7:18am 7 9 mph 1015mb 63f 65f
7:12am 8 10 mph 1015mb 63f 65f
7:06am 9 10 mph 1014.9mb 63f 65f
7:00am 9 10 mph 1014.8mb 63f 65f
6:54am 9 10 mph 1014.8mb 63f 65f
6:48am 9 10 mph 1014.8mb 63f 65f
6:42am 9 10 mph 1014.7mb 63f 65f
6:36am 9 11 mph 1014.7mb 63f 65f
6:30am 11 13 mph 1014.7mb 63f 66f
6:24am 10 13 mph 1014.6mb 63f 66f
6:18am 10 13 mph 1014.5mb 63f 66f
6:12am 9 11 mph 1014.6mb 63f 66f
6:06am 11 13 mph 1014.5mb 63f 65f
6:00am 10 13 mph 1014.5mb 63f 65f
5:54am 8 10 mph 1014.6mb 63f 65f
5:48am 8 10 mph 1014.6mb 63f 65f
5:42am 9 11 mph 1014.5mb 63f 65f
5:36am 10 13 mph 1014.5mb 63f 65f
5:30am 11 13 mph 1014.5mb 63f 65f
5:24am 13 14 mph 1014.4mb 63f 65f
5:18am 10 13 mph 1014.4mb 63f 65f
5:12am 9 10 mph 1014.4mb 63f 65f
5:06am 9 11 mph 1014.4mb 63f 65f
5:00am 11 13 mph 1014.3mb 63f 65f
4:54am 9 10 mph 1014.4mb 63f 65f
4:48am 9 11 mph 1014.4mb 63f -
4:42am 9 11 mph 1014.4mb 63f 65f
4:36am 10 13 mph 1014.4mb 63f 65f
4:30am 10 13 mph 1014.4mb 63f 65f
4:24am 10 13 mph 1014.5mb 63f 65f
4:18am 11 14 mph 1014.5mb 63f 64f
4:12am 10 13 mph 1014.5mb 63f 64f
4:06am 11 13 mph 1014.5mb 63f 64f
4:00am 11 14 mph 1014.5mb 63f 64f
3:54am 13 15 mph 1014.5mb 63f 64f
3:48am 13 14 mph 1014.6mb 63f 64f
3:42am 10 13 mph 1014.6mb 63f 64f
3:36am 11 14 mph 1014.6mb 63f 64f
3:30am 11 14 mph 1014.6mb 63f 63f
3:24am 13 15 mph 1014.6mb 63f 63f
3:18am 13 14 mph 1014.6mb 63f 63f
3:12am 8 11 mph 1014.7mb 63f 63f
3:06am 11 14 mph 1014.8mb 63f 63f
3:00am 14 18 mph 1014.7mb 63f 63f
2:54am 14 16 mph 1014.6mb 63f 63f
2:48am 11 20 mph 1014.8mb 63f 64f
2:42am 10 14 mph 1014.8mb 63f 63f
2:36am 7 11 mph 1015mb 63f 63f
2:30am 9 14 mph 1015mb 63f 63f
2:24am 11 17 mph 1014.9mb 63f 63f
2:18am 14 17 mph 1014.9mb 63f 63f
2:12am 13 15 mph 1014.9mb 63f 63f
2:06am 10 13 mph 1015mb 63f 63f
2:00am 13 14 mph 1014.9mb 63f 63f
1:54am 9 14 mph 1015mb 63f 63f
1:48am 11 15 mph 1015mb 63f 63f
1:42am 16 17 mph 1014.9mb 63f 63f
1:36am 10 11 mph 1015mb 63f 63f
1:30am 11 15 mph 1015.1mb 63f 63f
1:24am 11 15 mph 1015.1mb 63f 63f
1:18am 14 18 mph 1015mb 63f 63f
1:12am 13 16 mph 1015mb 63f 63f
1:06am 15 16 mph 1015mb 63f 63f
1:00am 13 17 mph 1015.1mb 63f 63f
12:54am 15 17 mph 1015.1mb 63f 63f
12:48am 15 18 mph 1015.1mb 63f 63f
12:42am 16 18 mph 1015.1mb 63f 63f
12:36am 16 20 mph 1015.2mb 63f 63f
12:30am 15 18 mph 1015.2mb 63f 63f
12:24am 15 17 mph 1015.3mb 63f 63f
12:18am 15 20 mph 1015.3mb 63f 63f
12:12am 17 22 mph 1015.3mb 63f 63f
12:06am 18 21 mph 1015.3mb 63f 63f
12:00am 17 21 mph 1015.3mb 63f 63f
Tue 12/06 11:54pm 16 22 mph 1015.4mb 63f 63f
11:48pm 17 22 mph 1015.4mb 63f 63f
11:42pm 18 23 mph 1015.4mb 63f 63f
11:36pm 18 24 mph 1015.3mb 63f 63f
11:30pm 20 22 mph 1015.2mb 63f 64f
11:24pm 20 23 mph 1015.3mb 63f 64f
11:18pm 18 22 mph 1015.2mb 63f 64f
11:12pm 16 21 mph 1015.3mb 63f 65f
11:06pm 18 21 mph 1015.2mb 63f 65f
11:00pm 14 18 mph 1015.3mb 63f 66f
10:54pm 9 13 mph 1015.1mb 63f 65f
10:48pm 5 7 mph 1014.9mb 63f 65f
10:42pm 3
mph
1014.8mb 63f 66f
10:36pm 2
mph
1014.8mb 63f 66f
10:30pm 1 3 mph 1014.8mb 63f 66f
10:24pm 3 5 mph 1014.8mb 63f 66f